Regional Weather Roundup
Issued by NWS

Home | Current Version | Previous Version | Graphics & Text | Print | Product List | Glossary On
Versions: 1 2 3 4 5 6 7 8 9 10 11 12 13 14 15 16 17 18 19 20 21 22 23 24 25 26 27 28 29 30 31 32 33 34 35 36 37 38 39 40 41 42 43 44 45 46 47 48 49 50
980
ASUS43 KOAX 211610
RWRNE

WEATHER ROUNDUP FOR NEBRASKA
NATIONAL WEATHER SERVICE OMAHA NE
1000 AM CST SUN JAN 21 2018

NOTES: SATELLITE DATA IS BEING USED TO AUGMENT CLOUD COVER ABOVE
       12000 FEET.
       "FAIR" INDICATES FEW OR NO CLOUDS BELOW 12,000 FEET WITH NO
       SIGNIFICANT WEATHER AND/OR OBSTRUCTIONS TO VISIBILITY.


NEZ001>004-019>022-054>056-211700-
NEBRASKA PANHANDLE

CITY           SKY/WX    TMP DP  RH WIND       PRES   REMARKS
SCOTTSBLUFF    MIX PCPN  29  26  89 N21       29.91R WCI  16
ALLIANCE       LGT SNOW  28  27  96 N16       29.90R VSB 3/4 WCI  16
CHADRON        SNOW      29  28  96 NE8       29.99R VSB 1/2 WCI  21
GORDON         LGT SNOW  30  27  90 N17       29.94S WCI  18
KIMBALL        LGT SNOW  27  26  96 N14       29.86S VSB 3/4 WCI  15
SIDNEY         LGT SNOW  28  27  96 NE18      29.87R VSB 3/4 WCI  15
$$

NEZ057>060-069>072-079>082-211700-
SOUTHWEST NEBRASKA

CITY           SKY/WX    TMP DP  RH WIND       PRES   REMARKS
NORTH PLATTE   CLOUDY    33  27  78 NE25G32   29.83F WCI  20
IMPERIAL       CLOUDY    31  28  89 NE24G31   29.79F WCI  17
LEXINGTON      RAIN      33  31  92 N15G22    29.81F WCI  23
MCCOOK         CLOUDY    33  32  96 N24G35    29.75F FOG     WCI  20
OGALLALA       CLOUDY    34  29  82 NE18      29.86S WCI  23
$$

NEZ005>010-023>029-035>040-094-211700-
NORTH CENTRAL NEBRASKA

CITY           SKY/WX    TMP DP  RH WIND       PRES   REMARKS
VALENTINE      LGT SNOW  34  31  88 N12       29.96R FOG     WCI  25
AINSWORTH      CLOUDY    33  33 100 N15       29.95R WCI  23
BROKEN BOW     CLOUDY    34  28  79 N16       29.85R WCI  24
O`NEILL        CLOUDY    34  32  93 N12       29.92R WCI  25
ORD            CLOUDY    34  28  79 N12       29.85R WCI  25
THEDFORD       CLOUDY    34  31  91 NE20G26   29.91R WCI  22
$$

NEZ041-046>049-061>064-073>077-083>087-211700-
SOUTH CENTRAL NEBRASKA

CITY           SKY/WX    TMP DP  RH WIND       PRES   REMARKS
GRAND ISLAND   CLOUDY    34  34 100 N15       29.81R FOG     WCI  24
AURORA         CLOUDY    34  34  99 NE15      29.78S FOG     WCI  24
HASTINGS       FOG       34  33  96 N13       29.79R VSB 3/4 WCI  25
HEBRON         CLOUDY    40  40  98 NE10      29.74S FOG     WCI  34
HOLDREGE       CLOUDY    33  33 100 N15G23    29.76F FOG     WCI  23
KEARNEY        MIX PCPN  33  32  96 N13       29.82R FOG     WCI  24
YORK           PTSUNNY   37  37 100 NE18      29.78S FOG     WCI  27
$$

NEZ011>018-030>034-042>045-211700-
NORTHEAST NEBRASKA

CITY           SKY/WX    TMP DP  RH WIND       PRES   REMARKS
NORFOLK        CLOUDY    45  29  53 NE9       29.84S
ALBION         CLOUDY    34  31  90 N9        29.85R WCI  26
BLAIR          CLOUDY    40  37  91 N13       29.79F FOG     WCI  32
FREMONT        CLOUDY    38  35  89 N9        29.82S WCI  31
TEKAMAH        CLOUDY    37  31  78 N12       29.84S WCI  29
WAYNE          CLOUDY    34  32  93 NE12      29.88S WCI  25
$$

NEZ050>053-065>068-078-088>093-211700-
SOUTHEAST NEBRASKA

CITY           SKY/WX    TMP DP  RH WIND       PRES   REMARKS
LINCOLN        CLOUDY    39  38  96 N9        29.79S FOG     WCI  33
OMAHA EPPLEY   DRIZZLE   41  38  89 N8        29.80S FOG
BEATRICE       CLOUDY    41  41 100 NE8       29.74F FOG
FALLS CITY     CLOUDY    45  44  97 SE5       29.75R FOG
NEBRASKA CITY  DRZL/FOG  40  40 100 NE7       29.78R VSB<1/4
PLATTSMOUTH    FOG       40  40 100 NE6       29.78F VSB 1
$$

NEZ044-045-051>053-067-211700-
OMAHA AREA

CITY           SKY/WX    TMP DP  RH WIND       PRES   REMARKS
OMAHA EPPLEY   DRIZZLE   41  38  89 N8        29.80S FOG
BLAIR          CLOUDY    40  37  91 N13       29.79F FOG     WCI  32
FREMONT        CLOUDY    38  35  89 N9        29.82S WCI  31
MILLARD        CLOUDY    43  40  89 CALM      29.79F FOG
OFFUTT AFB     LGT RAIN  41  39  93 NE6       29.79R FOG
PLATTSMOUTH    FOG       40  40 100 NE6       29.78F VSB 1
WAHOO          CLOUDY    39  36  88 N12G17    29.80S FOG     WCI  32
$$




USA.gov is the U.S. government's official web portal to all federal, state and local government web resources and services.